Location: Baumgartsau
(48.4586°N, 14.0864°E)
Time: 21:39:35
(UTC+00:00)

Cosmos 1802 Rocket - Pass Details

Date: 09 April 2020
Orbit: 954 x 1012 km, 82.9° (Epoch: 02 June)

Event Time Altitude Azimuth Distance (km) Brightness Sun altitude
Rises 22:10:21 0° 353° (N) 3,679 8.1 -32.3°
Reaches altitude 10° 22:12:56 10° 357° (N) 2,720 7.2 -32.4°
Enters shadow 22:18:10 55° 40° (NE) 1,150 4.4 -32.6°
